Tracking 29892 objects as of 21-Nov-2024
HD Live streaming from Space Station
objects crossing your sky now

STARLINK-5467

Track STARLINK-5467 now!
10-day predictions
STARLINK-5467 is classified as:


NORAD ID: 55660
Int'l Code: 2023-021AJ
Perigee: 577.2 km
Apogee: 581.2 km
Inclination: 70.0 °
Period: 96.1 minutes
Semi major axis: 6950 km
RCS: Unknown
Launch date: February 17, 2023
Source: United States (US)
Launch site: AIR FORCE WESTERN TEST RANGE (AFWTR)
Your satellite tracking list
Your tracking list is empty




NASA's NSSDC Master Catalog

Two Line Element Set (TLE):
1 55660U 23021AJ  24325.86060789 -.00000350  00000-0 -21513-4 0  9996
2 55660  69.9987 278.9839 0002889 273.9629  86.1200 14.98329372 98319
Source of the keplerian elements: AFSPC